* Astronomy

Members Login
Username 
 
Password 
    Remember Me  
Post Info TOPIC: Chang Zheng-2F RB re-entry


L

Posts: 131433
Date:
RE: Chang Zheng-2F RB re-entry
Permalink  
 


Update:
The Chang Zheng-2F rocket body re-entered the Earths atmosphere on the 8th November, 2011 @ 21:14 GMT 1 minute.

Inclination: 42.78
Revolution Number: 127
Predicted Location: 6N, 116E



__________________


L

Posts: 131433
Date:
Permalink  
 

Update:
The Chang Zheng-2F rocket body is predicted to re-enter the Earths atmosphere on the 8th November, 2011 @ 21:17 GMT 2 hours.

CZ-2F RB
1 37860U 11063B   11312.73582647  .10985557  90722-5  20264-3 0   392
2 37860 042.7721 309.2315 0014677 189.7664 172.5557 16.46264608  1251

Period: 88.25 minutes
Inclination: 42.78
Apogee: 212 km
Perigee: 164 km
Revolution Number: 127
Predicted Location: 8.7N, 112.7E



__________________


L

Posts: 131433
Date:
Permalink  
 

Update:
The Chang Zheng-2F rocket body is predicted to re-enter the Earths atmosphere on the 8th November, 2011 @ 21:27 GMT 8 hours.

CZ-2F RB
1 37860U 11063B   11312.32489453  .06572986  87926-5  52284-3 0   378
2 37860 042.7690 311.9833 0026756 189.2096 261.2052 16.37559410  1182

Period: 89.45 minutes
Inclination: 42.78
Apogee: 226 km
Perigee: 170 km
Revolution Number: 129
Predicted Location: 17.8S, 140E



__________________


L

Posts: 131433
Date:
Permalink  
 

A Chang Zheng-2F rocket body that was launched on the 31st October, 2011, from the Jiuquan lauinch site, for the Shenzhou-8 mission is predicted to re-enter the Earths atmosphere on the 8th November, 2011 @ 21:54 GMT 16 hours.

CZ-2F RB
1 37860U 11063B   11311.82077971  .03786817  88434-5  53152-3 0   333
2 37860 042.7773 315.3345 0036023 182.1107 178.2016 16.31656416  1100

Period: 89.45 minutes
Inclination: 42.78
Apogee: 226 km
Perigee: 170 km
Revolution Number: 127
Predicted Location: 25.8S, 261.3E



__________________
Page 1 of 1  sorted by
 
Quick Reply

Please log in to post quick replies.



Create your own FREE Forum
Report Abuse
Powered by ActiveBoard